| time (UTC) | temp F | wind direction | speed MPH | gust MPH | rain 1hr in | rain 24hr in | rain mn in | humidity % | barometer mb |
| 20260505022425 | 56 | 6 | 9.0 | 12.0 | 0.00 | 0.00 | 0.00 | 42 | 1015.3 |
| 20260505021426 | 57 | 356 | 7.0 | 8.0 | 0.00 | 0.00 | 0.00 | 43 | 1015.1 |
| 20260505020431 | 57 | 13 | 9.0 | 10.0 | 0.00 | 0.00 | 0.00 | 42 | 1014.9 |
| 20260505015432 | 58 | 351 | 8.0 | 10.0 | 0.00 | 0.00 | 0.00 | 42 | 1015.2 |
| 20260505014420 | 58 | 16 | 11.0 | 13.0 | 0.00 | 0.00 | 0.00 | 41 | 1015.1 |
| 20260505013423 | 59 | 6 | 7.0 | 13.0 | 0.00 | 0.00 | 0.00 | 43 | 1015.2 |
| 20260505012444 | 0 | 4 | 7.0 | 9.0 | 0.00 | 0.00 | 0.00 | 1015.1 | |
| 20260505011424 | 58 | 24 | 9.0 | 10.0 | 0.00 | 0.00 | 0.00 | 41 | 1015.1 |
| 20260505010426 | 59 | 352 | 11.0 | 14.0 | 0.00 | 0.00 | 0.00 | 42 | 1015.0 |
| 20260505005428 | 60 | 340 | 13.0 | 16.0 | 0.00 | 0.00 | 0.00 | 40 | 1015.0 |
| 20260505004425 | 61 | 2 | 11.0 | 13.0 | 0.00 | 0.00 | 0.00 | 40 | 1014.8 |
| 20260505003420 | 61 | 5 | 10.0 | 13.0 | 0.00 | 0.00 | 0.00 | 39 | 1015.0 |
| 20260505002444 | 62 | 0 | 11.0 | 14.0 | 0.00 | 0.00 | 0.00 | 39 | 1015.0 |
| 20260505001423 | 60 | 30 | 8.0 | 10.0 | 0.00 | 0.00 | 0.00 | 41 | 1015.1 |
| 20260505000425 | 61 | 33 | 9.0 | 11.0 | 0.00 | 0.00 | 0.00 | 40 | 1015.0 |
| 20260504235426 | 62 | 20 | 8.0 | 9.0 | 0.00 | 0.00 | 0.00 | 39 | 1014.9 |
| 20260504234424 | 62 | 41 | 12.0 | 14.0 | 0.00 | 0.00 | 0.00 | 39 | 1014.7 |
| 20260504233431 | 62 | 358 | 11.0 | 14.0 | 0.00 | 0.00 | 0.00 | 39 | 1014.7 |
| 20260504232420 | 61 | 332 | 11.0 | 18.0 | 0.00 | 0.00 | 0.00 | 41 | 1014.8 |
| 20260504231425 | 63 | 349 | 14.0 | 17.0 | 0.00 | 0.00 | 0.00 | 39 | 1014.9 |
| 20260504230423 | 62 | 1 | 9.0 | 11.0 | 0.00 | 0.00 | 0.00 | 39 | 1014.7 |
| 20260504225425 | 63 | 31 | 8.0 | 10.0 | 0.00 | 0.00 | 0.00 | 39 | 1014.6 |
| 20260504224426 | 64 | 33 | 10.0 | 11.0 | 0.00 | 0.00 | 0.00 | 39 | 1014.7 |
| 20260504223424 | 63 | 43 | 11.0 | 13.0 | 0.00 | 0.00 | 0.00 | 37 | 1014.8 |
| 20260504222445 | 63 | 37 | 13.0 | 16.0 | 0.00 | 0.00 | 0.00 | 38 | 1014.8 |
| 20260504221423 | 63 | 347 | 9.0 | 11.0 | 0.00 | 0.00 | 0.00 | 37 | 1014.8 |
| 20260504220422 | 67 | 19 | 8.0 | 9.0 | 0.00 | 0.00 | 0.00 | 36 | 1014.7 |
| 20260504215423 | 65 | 17 | 10.0 | 13.0 | 0.00 | 0.00 | 0.00 | 34 | 1014.7 |
| 20260504214425 | 66 | 20 | 8.0 | 9.0 | 0.00 | 0.00 | 0.00 | 36 | 1014.6 |
| 20260504213428 | 64 | 319 | 8.0 | 9.0 | 0.00 | 0.00 | 0.00 | 37 | 1014.6 |
| 20260504212432 | 67 | 12.0 | 17.0 | 0.00 | 0.00 | 0.00 | 33 | 1014.6 | |
| 20260504211425 | 68 | 314 | 5.0 | 6.0 | 0.00 | 0.00 | 0.00 | 32 | 1014.5 |
| 20260504210442 | 66 | 43 | 4.0 | 6.0 | 0.00 | 0.00 | 0.00 | 36 | 1014.7 |
| 20260504205422 | 66 | 33 | 4.0 | 6.0 | 0.00 | 0.00 | 0.00 | 34 | 1014.6 |
| 20260504204424 | 68 | 7 | 2.0 | 4.0 | 0.00 | 0.00 | 0.00 | 36 | 1014.7 |
| 20260504203425 | 66 | 32 | 5.0 | 7.0 | 0.00 | 0.00 | 0.00 | 35 | 1014.6 |
| 20260504202423 | 65 | 34 | 6.0 | 8.0 | 0.00 | 0.00 | 0.00 | 36 | 1014.5 |
| 20260504201445 | 66 | 325 | 4.0 | 6.0 | 0.00 | 0.00 | 0.00 | 35 | 1014.9 |
| 20260504200429 | 64 | 360 | 6.0 | 8.0 | 0.00 | 0.00 | 0.00 | 36 | 1014.8 |
| 20260504195441 | 67 | 326 | 7.0 | 11.0 | 0.00 | 0.00 | 0.00 | 34 | 1014.8 |
| 20260504194442 | 66 | 33 | 4.0 | 5.0 | 0.00 | 0.00 | 0.00 | 33 | 1014.8 |
| 20260504193423 | 65 | 89 | 5.0 | 8.0 | 0.00 | 0.00 | 0.00 | 35 | 1014.9 |
| 20260504192428 | 64 | 36 | 4.0 | 4.0 | 0.00 | 0.00 | 0.00 | 37 | 1014.9 |
| 20260504191424 | 63 | 55 | 4.0 | 4.0 | 0.00 | 0.00 | 0.00 | 36 | 1015.0 |
| 20260504190428 | 64 | 110 | 6.0 | 7.0 | 0.00 | 0.00 | 0.00 | 35 | 1015.0 |
| 20260504185429 | 64 | 81 | 3.0 | 5.0 | 0.00 | 0.00 | 0.00 | 36 | 1015.0 |
| 20260504184421 | 63 | 350 | 7.0 | 7.0 | 0.00 | 0.00 | 0.00 | 38 | 1015.2 |
| 20260504183423 | 64 | 358 | 4.0 | 5.0 | 0.00 | 0.00 | 0.00 | 37 | 1015.2 |
| 20260504182423 | 62 | 346 | 10.0 | 13.0 | 0.00 | 0.00 | 0.00 | 38 | 1015.2 |
| 20260504181426 | 66 | 344 | 6.0 | 10.0 | 0.00 | 0.00 | 0.00 | 36 | 1015.2 |
| 20260504180426 | 64 | 71 | 6.0 | 7.0 | 0.00 | 0.00 | 0.00 | 38 | 1015.2 |
| 20260504175429 | 66 | 103 | 4.0 | 5.0 | 0.00 | 0.00 | 0.00 | 35 | 1015.2 |
| 20260504174430 | 65 | 338 | 9.0 | 10.0 | 0.00 | 0.00 | 0.00 | 38 | 1015.3 |
| 20260504173444 | 65 | 287 | 6.0 | 7.0 | 0.00 | 0.00 | 0.00 | 37 | 1015.4 |
| 20260504172424 | 68 | 63 | 2.0 | 2.0 | 0.00 | 0.00 | 0.00 | 31 | 1015.4 |
| 20260504171423 | 66 | 150 | 5.0 | 6.0 | 0.00 | 0.00 | 0.00 | 35 | 1015.5 |
| 20260504170425 | 64 | 178 | 7.0 | 8.0 | 0.00 | 0.00 | 0.00 | 36 | 1015.5 |
| 20260504160424 | 62 | 97 | 0.0 | 1.0 | 0.00 | 0.00 | 0.00 | 37 | 1015.6 |
| 20260504150422 | 59 | 161 | 2.0 | 3.0 | 0.00 | 0.00 | 0.00 | 48 | 1015.9 |
| 20260504140421 | 51 | 145 | 1.0 | 2.0 | 0.00 | 0.00 | 0.00 | 66 | 1015.8 |
| 20260504130419 | 43 | 90 | 2.0 | 2.0 | 0.00 | 0.00 | 0.00 | 72 | 1015.0 |
| 20260504110427 | 46 | 238 | 2.0 | 2.0 | 0.00 | 0.00 | 0.00 | 66 | 1014.1 |
| 20260504100426 | 49 | 1.0 | 2.0 | 0.00 | 0.00 | 0.00 | 57 | 1013.2 | |
| 20260504081443 | 58 | 334 | 8.0 | 9.0 | 0.00 | 0.00 | 0.00 | 44 | 1012.0 |
| 20260504080422 | 58 | 339 | 9.0 | 11.0 | 0.00 | 0.00 | 0.00 | 44 | 1011.9 |
| 20260504050449 | 53 | 12 | 1.0 | 2.0 | 0.00 | 0.00 | 0.00 | 68 | 1010.5 |
| 20260504045419 | 53 | 0.0 | 0.0 | 0.00 | 0.00 | 0.00 | 69 | 1010.3 | |
| 20260504044421 | 55 | 134 | 0.0 | 1.0 | 0.00 | 0.00 | 0.00 | 66 | 1010.3 |
| 20260504043423 | 55 | 0.0 | 0.0 | 0.00 | 0.00 | 0.00 | 67 | 1010.3 | |
| 20260504042423 | 56 | 0.0 | 0.0 | 0.00 | 0.00 | 0.00 | 64 | 1010.4 | |
| 20260504041425 | 57 | 64 | 3.0 | 3.0 | 0.00 | 0.00 | 0.00 | 63 | 1010.3 |
| 20260504040426 | 58 | 0.0 | 0.0 | 0.00 | 0.00 | 0.00 | 64 | 1010.2 | |
| 20260504035429 | 59 | 0.0 | 0.0 | 0.00 | 0.00 | 0.00 | 58 | 1010.2 | |
| 20260504034439 | 60 | 318 | 2.0 | 3.0 | 0.00 | 0.00 | 0.00 | 58 | 1010.1 |
| 20260504033423 | 60 | 320 | 2.0 | 3.0 | 0.00 | 0.00 | 0.00 | 61 | 1010.0 |
| 20260504032443 | 61 | 0.0 | 0.0 | 0.00 | 0.00 | 0.00 | 51 | 1010.0 | |
| 20260504031444 | 63 | 0.0 | 0.0 | 0.00 | 0.00 | 0.00 | 48 | 1009.9 | |
| 20260504030445 | 63 | 0.0 | 0.0 | 0.00 | 0.00 | 0.00 | 44 | 1009.7 | |
| 20260504025427 | 65 | 0.0 | 0.0 | 0.00 | 0.00 | 0.00 | 43 | 1009.9 | |
| 20260504024428 | 67 | 0.0 | 0.0 | 0.00 | 0.00 | 0.00 | 43 | 1009.9 | |
| 20260504023422 | 68 | 155 | 3.0 | 3.0 | 0.00 | 0.00 | 0.00 | 39 | 1009.7 |